This is the latest recevied weather packets stored in our database for station/object E24QND-2. If no packets are shown the sender has not sent any weather packets the latest 10 day(s).
| Time | Temp. | Humidity | Pressure | Rain* | Wind** | Luminosity | Snow |
|---|---|---|---|---|---|---|---|
| 1788110440 | 26.67° C | 1% | - | - | - | 0 W/m² | - |
| 1788109216 | 26.67° C | 99% | - | - | - | 0 W/m² | - |
| 1788107991 | 26.67° C | 86% | - | - | - | 0 W/m² | - |
| 1788106767 | 27.22° C | 99% | - | - | - | 0 W/m² | - |
| 1788105542 | 27.22° C | 1% | - | - | - | 0 W/m² | - |
| 1788104318 | 26.67° C | 1% | - | - | - | 0 W/m² | - |
| 1788103093 | 27.22° C | 59% | - | - | - | 0 W/m² | - |
| 1788101869 | 27.78° C | 1% | - | - | - | 0 W/m² | - |
| 1788100644 | 27.78° C | 1% | - | - | - | 0 W/m² | - |
| 1788099419 | 27.78° C | 1% | - | - | - | 0 W/m² | - |
| 1788098195 | 27.78° C | 1% | - | - | - | 0 W/m² | - |
| 1788096970 | 27.78° C | 1% | - | - | - | 0 W/m² | - |
| 1788095746 | 27.78° C | 1% | - | - | - | 0 W/m² | - |
| 1788094521 | 27.78° C | 99% | - | - | - | 0 W/m² | - |
| 1788093297 | 28.33° C | 1% | - | - | - | 0 W/m² | - |
| 1788092072 | 28.89° C | 23% | - | - | - | 0 W/m² | - |
| 1788090848 | 29.44° C | 1% | - | - | - | 0 W/m² | - |
| 1788089623 | 29.44° C | 99% | - | - | - | 0 W/m² | - |
| 1788088399 | 30° C | 1% | - | - | - | 0 W/m² | - |
| 1788087174 | 30° C | 1% | - | - | - | 0 W/m² | - |
| 1788085949 | 30° C | 1% | - | - | - | 0 W/m² | - |
| 1788084725 | 30° C | 1% | - | - | - | 0 W/m² | - |
| 1788083500 | 30° C | 83% | - | - | - | 0 W/m² | - |
| 1788082277 | 30.56° C | 1% | - | - | - | 0 W/m² | - |
| 1788081051 | 30.56° C | 1% | - | - | - | 0 W/m² | - |
* Rain since midnight (hover to see other rain measurements)
** Current wind speed in m/s (hover to see current wind gust speed)